[[{"header":{"parameterUnit":"m.s-1","parameterCategory":2,"la1":30.2991,"la2":30.254,"lo1":-89.0895,"lo2":-89.0444,"dy":0.0017,"dx":0.0017,"nx":28,"ny":28,"refTime":"2024-03-22T21:00:00:Z","depth":"0","parameterNumber":2,"parameterNumberName":"U-component_of_CURRENTS"},"data":[0,0,0,0,0,0,0,0,0,0,0,0,0,0,0,0,0,0,0,0,0,0,0,0,0,0,0,0,0,0,0,0,0,0,0,0,0,0,0,0,0,0,0,0,0,0,0,0,0,0,0,0,0,0,0,0,0,0,0.3251,0.3251,0,0.3157,0.3156,0.3154,0.3097,0.3098,0.3098,0.3098,0.3046,0.3045,0.3043,0,0,0,0,0,0,0,0,0,0,0,0,0,0.3302,0.3302,0.3251,0.3251,0.325,0.3157,0.3156,0.3154,0.3097,0.3098,0.3098,0.3098,0.3047,0.3045,0.3043,0,0,0,0,0,0,0,0,0,0,0,0,0,0.3246,0.3301,0.3252,0.3215,0.3211,0.3158,0.3155,0.3153,0.3097,0.3098,0.3098,0.3098,0.3047,0.3045,0.3043,0.3021,0,0,0.3035,0.3034,0,0,0,0,0,0,0,0,0.325,0.3244,0.3221,0.3217,0.3213,0.3144,0.3155,0.3113,0.3097,0.3135,0.3098,0.3098,0.3086,0.3081,0.3054,0.3018,0.3016,0.3035,0.3034,0.3033,0.3032,0,0,0,0,0,0,0,0.3254,0.3247,0.3208,0.322,0.3215,0.3176,0.3168,0.3145,0.3106,0.3131,0.3128,0.3126,0.3084,0.3056,0.3052,0.3015,0.3035,0.3033,0.3031,0.3031,0.301,0.3011,0,0,0,0,0,0,0.328,0.3251,0.3212,0.3206,0.3239,0.3175,0.3167,0.3161,0.3105,0.3098,0.3126,0.3124,0.306,0.3055,0.305,0.3059,0.3033,0.303,0.3029,0.3009,0.3011,0.3012,0,0,0,0,0,0,0.3281,0.3277,0.3216,0.3231,0.3221,0.3175,0.3169,0.3159,0.3137,0.3102,0.3095,0.3115,0.306,0.3054,0.3043,0.3056,0.3029,0.3027,0.3008,0.301,0.3011,0.3053,0,0,0,0,0,0,0.3283,0.3278,0.3272,0.3233,0.3222,0.3185,0.3169,0.3158,0.3138,0.3134,0.309,0.3085,0.306,0.3047,0.3041,0.3052,0.3025,0.3007,0.3009,0.3011,0.3051,0.3056,0.306,0,0,0,0,0,0.3285,0.3267,0.3272,0.3267,0.3219,0.3185,0.3174,0.3139,0.3137,0.3121,0.3106,0.3087,0.3054,0.3045,0.3038,0.3049,0.3006,0.3009,0.3011,0.3048,0.3055,0.306,0,0,0,0,0,0,0.3259,0.3259,0.3264,0.324,0.3223,0.3178,0.3156,0.3145,0.3115,0.3117,0.309,0.3083,0.3083,0.3061,0.3053,0.3051,0.303,0.3031,0.3062,0.3067,0.3072,0.3098,0.3023,0,0,0,0,0,0.3262,0.3262,0.325,0.3229,0.3228,0.3199,0.318,0.3163,0.3138,0.3124,0.3102,0.3087,0.3083,0.3072,0.3058,0.3047,0.3059,0.3054,0.3058,0.3063,0.308,0.3118,0.3128,0.3018,0.3018,0.3018,0,0,0.3242,0.3246,0.324,0.3227,0.321,0.3197,0.3185,0.3161,0.3155,0.3126,0.3108,0.3101,0.3086,0.3081,0.3078,0.3064,0.3098,0.3065,0.3069,0.3084,0.3121,0.3132,0.3141,0.302,0.3019,0.3019,0,0,0.32,0.3215,0.32,0.3199,0.3192,0.3187,0.3189,0.3161,0.3157,0.3143,0.3137,0.3146,0.3109,0.3115,0.3112,0.3137,0.3127,0.3126,0.3162,0.3198,0.3208,0.3216,0.3238,0.3248,0.3122,0.3122,0.3122,0,0.3173,0.3169,0.3184,0.3174,0.3182,0.3191,0.3181,0.3174,0.3146,0.3166,0.3144,0.3151,0.3133,0.3162,0.3168,0.3149,0.3162,0.3138,0.3205,0.3214,0.3222,0.3242,0.3253,0.3124,0.3124,0.3124,0.3124,0,0.3125,0.313,0.3123,0.3136,0.3139,0.3135,0.3154,0.3163,0.3174,0.318,0.3213,0.3197,0.321,0.3203,0.3187,0.324,0.3228,0.3212,0.3192,0.3236,0.3254,0.3264,0.3128,0.3127,0.3126,0.3126,0,0,0.3048,0.3085,0.3084,0.31,0.3133,0.3125,0.3157,0.3193,0.3226,0.3223,0.3264,0.327,0.3286,0.3287,0.3279,0.3304,0.3362,0.3281,0.3282,0.3305,0.3436,0.3401,0.3409,0.3356,0.3358,0.336,0.3422,0,0.301,0.3004,0.3039,0.3043,0.305,0.3108,0.3138,0.3178,0.3221,0.3261,0.3299,0.3322,0.3311,0.3318,0.3351,0.3367,0.3393,0.3346,0.3388,0.3389,0.3356,0.3422,0.3334,0.338,0.3432,0.3434,0.3435,0,0.295,0.2969,0.2971,0.3033,0.3043,0.3052,0.3142,0.3169,0.3259,0.3293,0.3356,0.338,0.3442,0.3406,0.3486,0.3457,0.3455,0.3458,0.346,0.3425,0.3375,0.3346,0.3397,0.3348,0.3451,0.345,0.3449,0,0.2891,0.2921,0.2935,0.2951,0.3014,0.3043,0.3087,0.3179,0.3239,0.3321,0.3375,0.3445,0.3491,0.3517,0.3547,0.3517,0.3621,0.3576,0.3546,0.3542,0.3476,0.3463,0.3489,0.3625,0.3625,0.3625,0.3625,0,0.2846,0.2851,0.2908,0.2912,0.2948,0.3004,0.3066,0.3127,0.3239,0.3303,0.3389,0.3451,0.3524,0.3593,0.3584,0.3621,0.3661,0.3578,0.3569,0.3486,0.3474,0.3433,0.3407,0.3627,0.3627,0.3626,0.3626,0,0.2771,0.2808,0.2826,0.2895,0.2916,0.2941,0.3057,0.3103,0.3221,0.3311,0.3342,0.3495,0.3578,0.3645,0.3697,0.3681,0.3605,0.3683,0.3578,0.3556,0.3454,0.3433,0.3292,0.3193,0.3658,0.3658,0.3658,0,0.273,0.2731,0.2798,0.2813,0.2843,0.2899,0.2938,0.3068,0.3131,0.3318,0.3351,0.3498,0.358,0.3696,0.3689,0.3705,0.359,0.3607,0.3531,0.3464,0.3435,0.3264,0.3178,0.3456,0.3454,0.3453,0.3451,0,0.2665,0.2692,0.2714,0.2747,0.2779,0.2825,0.2896,0.2955,0.3096,0.3186,0.3314,0.341,0.3569,0.3584,0.3639,0.3618,0.3457,0.3574,0.3539,0.332,0.3103,0.2997,0.3393,0.3438,0.3439,0.344,0.3441,0.3441,0.2616,0.2619,0.2649,0.2666,0.27,0.2724,0.2727,0.2817,0.2899,0.3008,0.3176,0.3278,0.3438,0.3524,0.3485,0.3415,0.3355,0.3331,0.3324,0.3167,0.3026,0.3391,0.3401,0.3402,0.3403,0.3404,0.3405,0,0.2538,0.2546,0.2563,0.2572,0.2553,0.2611,0.2663,0.2649,0.2672,0.2835,0.2935,0.3113,0.3175,0.3268,0.3308,0.3216,0.3019,0.3129,0.2893,0.283,0.3208,0.3159,0.3075,0.3075,0.3075,0.3075,0.3076,0.3076,0.25,0.2472,0.2472,0.2408,0.241,0.2352,0.2352,0.2359,0.2443,0.2534,0.2644,0.279,0.3075,0.3201,0.316,0.3072,0.285,0.2714,0.2681,0.3009,0.3027,0.3044,0.2992,0.2875,0.2874,0.2176,0.2171,0.2168]},{"header":{"parameterUnit":"m.s-1","parameterCategory":2,"la1":30.2991,"la2":30.254,"lo1":-89.0895,"lo2":-89.0444,"dy":0.0017,"dx":0.0017,"nx":28,"ny":28,"refTime":"2024-03-22T21:00:00:Z","depth":"0","parameterNumber":3,"parameterNumberName":"V-component_of_CURRENTS"},"data":[0,0,0,0,0,0,0,0,0,0,0,0,0,0,0,0,0,0,0,0,0,0,0,0,0,0,0,0,0,0,0,0,0,0,0,0,0,0,0,0,0,0,0,0,0,0,0,0,0,0,0,0,0,0,0,0,0,0,-0.0023,-0.0023,0,-0.0007,-0.0007,-0.0007,-0.0013,-0.0013,-0.0013,-0.0013,-0.0042,-0.0042,-0.0043,0,0,0,0,0,0,0,0,0,0,0,0,0,-0.0071,-0.007,-0.0023,-0.0023,-0.0023,-0.0007,-0.0007,-0.0007,-0.0013,-0.0013,-0.0013,-0.0013,-0.0041,-0.0042,-0.0043,0,0,0,0,0,0,0,0,0,0,0,0,0,-0.0055,-0.007,-0.0024,-0.0022,-0.0021,-0.0007,-0.0007,-0.0007,-0.0013,-0.0013,-0.0013,-0.0013,-0.0041,-0.0042,-0.0043,-0.0045,0,0,-0.0046,-0.0046,0,0,0,0,0,0,0,0,-0.0056,-0.0053,-0.0022,-0.0022,-0.0021,-0.001,-0.0034,-0.0021,-0.0013,-0.0019,-0.0013,-0.0014,-0.0033,-0.0035,-0.0034,-0.0046,-0.0047,-0.0046,-0.0046,-0.0047,-0.0047,0,0,0,0,0,0,0,-0.0057,-0.0054,-0.002,-0.0022,-0.0021,-0.0026,-0.0024,-0.0032,-0.0028,-0.0018,-0.0018,-0.0012,-0.0034,-0.0033,-0.0035,-0.0048,-0.0046,-0.0047,-0.0047,-0.0048,-0.0065,-0.0065,0,0,0,0,0,0,-0.0053,-0.0055,-0.002,-0.0019,-0.0036,-0.0024,-0.0022,-0.0016,-0.0027,-0.0028,-0.0012,-0.0012,-0.0032,-0.0034,-0.0036,-0.0026,-0.0047,-0.0048,-0.0048,-0.0065,-0.0065,-0.0065,0,0,0,0,0,0,-0.0054,-0.005,-0.0021,-0.0035,-0.0031,-0.0023,-0.0016,-0.0015,-0.0011,-0.0021,-0.0023,-0.0007,-0.0032,-0.0035,-0.004,-0.0028,-0.0048,-0.0049,-0.0065,-0.0065,-0.0065,-0.0014,0,0,0,0,0,0,-0.0055,-0.005,-0.0043,-0.0034,-0.003,-0.0004,-0.0015,-0.0014,-0.0006,-0.0006,-0.0018,-0.0021,-0.0032,-0.0038,-0.0041,-0.0029,-0.005,-0.0066,-0.0065,-0.0065,-0.0015,-0.0012,-0.0009,0,0,0,0,0,-0.0057,-0.0036,-0.0043,-0.0039,-0.0021,-0.0003,-0.0002,0.0001,-0.0005,0.0003,-0.0009,-0.002,-0.0039,-0.0039,-0.0042,-0.003,-0.0066,-0.0065,-0.0065,-0.0017,-0.0012,-0.0009,0,0,0,0,0,0,-0.0043,-0.0034,-0.0042,-0.0018,-0.0012,-0.0003,0.0009,0.0005,0.0003,0.0002,-0.0017,-0.002,-0.0023,-0.0035,-0.0035,-0.0037,-0.0055,-0.0055,-0.0017,-0.0013,-0.001,0.0013,-0.0051,0,0,0,0,0,-0.004,-0.0029,-0.0022,-0.0004,0.0001,0.0002,0.0009,0.0011,0.0011,0.001,-0.0003,-0.0016,-0.0025,-0.0025,-0.0039,-0.0035,-0.0056,-0.0032,-0.0028,-0.0025,-0.001,-0.0035,-0.0032,-0.0064,-0.0064,-0.0064,0,0,-0.0029,-0.0023,-0.0016,-0.0002,0.0003,0.0023,0.0006,0.0024,0.0041,0.0007,0.0018,-0.0007,-0.0024,-0.0022,-0.0024,-0.0028,-0.0031,-0.0025,-0.0022,-0.0008,-0.0035,-0.0031,-0.0029,-0.0064,-0.0064,-0.0064,0,0,0.0007,0.0002,0.0025,0.0031,0.0043,0.0043,0.0049,0.0054,0.0056,0.0059,0.0038,0.0025,0.0009,0.0005,-0.0,0.0014,-0.0017,0.0004,0.0049,0.0024,0.0027,0.0029,-0.0006,-0.0007,0.0012,0.0012,0.0012,0,0.0021,0.0049,0.0036,0.006,0.0074,0.0055,0.0087,0.0087,0.0087,0.0097,0.0069,0.0047,0.0026,0.0041,0.0043,0.0025,-0.0001,0.0037,0.003,0.0032,0.0033,-0.0003,-0.0005,0.0015,0.0014,0.0014,0.0014,0,0.0074,0.0093,0.011,0.0128,0.0138,0.0163,0.0161,0.0168,0.0156,0.0153,0.0151,0.0113,0.0105,0.0089,0.0071,0.0077,0.005,0.0032,0.0023,0.004,-0.0,-0.0003,0.0018,0.0017,0.0017,0.0016,0,0,0.0119,0.0144,0.0149,0.0172,0.0178,0.02,0.0221,0.0245,0.0276,0.0238,0.0267,0.0227,0.0198,0.019,0.0156,0.0133,0.0109,0.0093,0.009,0.0066,0.0044,0.0032,0.0027,0.0087,0.0087,0.0087,0.0008,0,0.0168,0.0229,0.0223,0.0279,0.0312,0.0299,0.0329,0.0341,0.0336,0.0351,0.0303,0.0304,0.024,0.0235,0.0201,0.0141,0.0105,0.0132,0.0026,0.0023,0.0016,0.0025,0.0049,-0.0019,0.0005,0.0004,0.0004,0,0.0224,0.0259,0.0325,0.037,0.0384,0.0409,0.0458,0.0484,0.049,0.0486,0.0463,0.0416,0.0382,0.0316,0.0215,0.0234,0.0145,0.0083,0.0078,0.0052,0.0006,-0.003,-0.0026,-0.0186,-0.0001,-0.0001,-0.0,0,0.0273,0.0329,0.0388,0.0401,0.0447,0.0478,0.0504,0.0528,0.0576,0.0569,0.0592,0.0521,0.0503,0.0384,0.0244,0.0229,0.0124,0.0086,-0.0014,-0.0017,-0.0023,-0.0025,-0.0174,0.0005,0.0005,0.0005,0.0005,0,0.033,0.0375,0.0418,0.045,0.0539,0.054,0.0629,0.0646,0.0684,0.0749,0.0666,0.0693,0.0519,0.0433,0.0282,0.0134,0.0148,0.0,-0.0032,-0.0006,-0.0007,-0.0167,-0.0256,0.0002,0.0003,0.0003,0.0004,0,0.0375,0.0398,0.0475,0.0536,0.0566,0.063,0.0721,0.0786,0.0805,0.0883,0.0884,0.0831,0.072,0.0533,0.0347,0.0205,-0.0042,-0.0017,0.002,-0.0006,-0.0244,-0.0331,-0.0496,-0.0573,-0.0135,-0.0136,-0.0136,0,0.0404,0.0449,0.0545,0.0603,0.0635,0.0728,0.0802,0.0849,0.0925,0.0975,0.1025,0.094,0.0911,0.0638,0.036,0.0095,-0.0065,-0.0064,-0.0089,-0.0248,-0.0369,-0.0427,-0.0484,-0.0089,-0.0089,-0.0089,-0.0089,0,0.0469,0.05,0.0567,0.0688,0.0774,0.0883,0.0986,0.1068,0.1126,0.1197,0.1265,0.1242,0.0977,0.0736,0.0367,0.0176,-0.0166,-0.0075,-0.0246,-0.0345,-0.041,-0.0501,-0.0061,-0.009,-0.009,-0.009,-0.009,-0.009,0.0522,0.0582,0.0671,0.0787,0.0891,0.1025,0.1127,0.124,0.138,0.1492,0.1451,0.1469,0.1096,0.0612,0.0315,-0.0182,-0.0195,-0.0327,-0.0421,-0.0467,-0.0533,-0.0097,-0.0155,-0.0155,-0.0156,-0.0156,-0.0156,0,0.0593,0.0658,0.0764,0.0903,0.1022,0.1068,0.1246,0.1356,0.1529,0.1638,0.1698,0.1557,0.1092,0.0606,-0.0068,-0.0447,-0.0584,-0.0657,-0.0743,-0.0787,-0.0403,-0.0393,-0.0495,-0.0495,-0.0495,-0.0495,-0.0495,-0.0495,0.0634,0.0741,0.0791,0.0991,0.1089,0.1264,0.1372,0.1541,0.1674,0.1838,0.1886,0.1886,0.1553,0.0285,-0.0573,-0.0786,-0.1038,-0.1101,-0.1246,-0.0995,-0.0971,-0.0949,-0.0961,-0.1181,-0.1182,-0.157,-0.1574,-0.1577]}],[{"header":{"parameterUnit":"m.s-1","parameterCategory":2,"la1":30.2991,"la2":30.254,"lo1":-89.0895,"lo2":-89.0444,"dy":0.0017,"dx":0.0017,"nx":28,"ny":28,"refTime":"2024-03-22T21:00:00:Z","depth":"2","parameterNumber":2,"parameterNumberName":"U-component_of_CURRENTS"},"data":[0,0,0,0,0,0,0,0,0,0,0,0,0,0,0,0,0,0,0,0,0,0,0,0,0,0,0,0,0,0,0,0,0,0,0,0,0,0,0,0,0,0,0,0,0,0,0,0,0,0,0,0,0,0,0,0,0,0,0.2778,0.2779,0,0.2782,0.2781,0.2781,0.2774,0.2775,0.2775,0.2775,0.2748,0.2747,0.2746,0,0,0,0,0,0,0,0,0,0,0,0,0,0.276,0.276,0.2778,0.2779,0.2779,0.2782,0.2781,0.2781,0.2774,0.2775,0.2775,0.2775,0.2749,0.2748,0.2746,0,0,0,0,0,0,0,0,0,0,0,0,0,0.2761,0.276,0.2778,0.278,0.2781,0.2782,0.2781,0.2781,0.2774,0.2775,0.2775,0.2775,0.2749,0.2748,0.2746,0.273,0,0,0.2742,0.2741,0,0,0,0,0,0,0,0,0.2761,0.2761,0.2779,0.278,0.2781,0.2783,0.2765,0.2764,0.2774,0.2771,0.2775,0.2776,0.276,0.2758,0.2751,0.2728,0.2727,0.2742,0.2741,0.274,0.274,0,0,0,0,0,0,0,0.2761,0.2761,0.2774,0.278,0.2781,0.2779,0.2779,0.2765,0.2759,0.2771,0.2772,0.2781,0.276,0.2752,0.275,0.2727,0.2742,0.2741,0.274,0.2739,0.2743,0.2744,0,0,0,0,0,0,0.2771,0.2761,0.2774,0.2775,0.2778,0.278,0.2779,0.2777,0.276,0.2759,0.2781,0.2781,0.2754,0.2752,0.2749,0.2771,0.274,0.2739,0.2738,0.2742,0.2743,0.2744,0,0,0,0,0,0,0.277,0.2772,0.2774,0.2773,0.2774,0.278,0.2777,0.2777,0.2784,0.2768,0.2766,0.279,0.2754,0.2751,0.2751,0.2768,0.2738,0.2737,0.2741,0.2742,0.2744,0.2788,0,0,0,0,0,0,0.277,0.2771,0.2782,0.2773,0.2774,0.2782,0.2778,0.2777,0.279,0.2791,0.2775,0.2772,0.2754,0.2754,0.275,0.2766,0.2736,0.274,0.2742,0.2743,0.2785,0.2791,0.2795,0,0,0,0,0,0.2769,0.2774,0.2782,0.2784,0.2785,0.2783,0.2782,0.2785,0.2791,0.2792,0.2788,0.2773,0.2763,0.2753,0.2748,0.2764,0.2739,0.2741,0.2743,0.2783,0.279,0.2795,0,0,0,0,0,0,0.2764,0.2774,0.2782,0.2789,0.2793,0.2784,0.2793,0.2794,0.2791,0.2796,0.2779,0.2775,0.2786,0.2769,0.2759,0.2773,0.2751,0.2752,0.2783,0.2789,0.2794,0.2817,0.2735,0,0,0,0,0,0.2772,0.278,0.2787,0.2792,0.2799,0.28,0.2805,0.2805,0.2801,0.2801,0.2791,0.2787,0.2789,0.2784,0.2779,0.2778,0.2787,0.2789,0.2794,0.2798,0.2816,0.285,0.286,0.2751,0.2751,0.2751,0,0,0.2761,0.2779,0.2776,0.2793,0.2797,0.2801,0.2802,0.281,0.2817,0.2797,0.2805,0.2804,0.2795,0.2801,0.2804,0.2789,0.2832,0.2801,0.2805,0.282,0.2853,0.2864,0.2873,0.2753,0.2753,0.2752,0,0,0.2745,0.2772,0.277,0.2783,0.2806,0.2811,0.2819,0.282,0.283,0.2834,0.2834,0.2851,0.2832,0.2841,0.284,0.2871,0.2862,0.2864,0.2902,0.2935,0.2944,0.2953,0.297,0.298,0.2861,0.2861,0.2861,0,0.2739,0.2747,0.2768,0.2779,0.2798,0.2818,0.2823,0.2833,0.2833,0.2857,0.2843,0.2868,0.2856,0.2889,0.2899,0.2884,0.2895,0.2877,0.2942,0.2951,0.2959,0.2975,0.2985,0.2864,0.2864,0.2863,0.2863,0,0.2718,0.2737,0.2742,0.2767,0.2785,0.2798,0.2823,0.2845,0.2865,0.2881,0.2924,0.2918,0.294,0.2936,0.2923,0.2978,0.2965,0.2949,0.2928,0.2973,0.2986,0.2996,0.2867,0.2866,0.2866,0.2865,0,0,0.2672,0.2719,0.2723,0.274,0.279,0.2794,0.2835,0.288,0.2917,0.2933,0.298,0.2996,0.3017,0.302,0.3016,0.3039,0.3096,0.3019,0.302,0.3039,0.3164,0.3125,0.3131,0.3091,0.3094,0.3095,0.3148,0,0.2656,0.2675,0.271,0.2729,0.2742,0.2799,0.2834,0.2881,0.2929,0.2977,0.3016,0.305,0.3042,0.3056,0.3087,0.3102,0.3125,0.3083,0.3116,0.3117,0.308,0.3143,0.2902,0.2926,0.3157,0.3159,0.316,0,0.2624,0.2652,0.267,0.2729,0.2742,0.2762,0.285,0.2885,0.2977,0.3015,0.3082,0.3111,0.3174,0.3142,0.3216,0.319,0.3188,0.3188,0.3189,0.3149,0.3098,0.292,0.2935,0.3176,0.3175,0.3174,0.3173,0,0.2579,0.2624,0.2646,0.2663,0.2729,0.2762,0.2809,0.2901,0.2962,0.3051,0.3106,0.3177,0.3227,0.325,0.3277,0.3249,0.3341,0.3297,0.3259,0.3255,0.3056,0.3032,0.3341,0.3341,0.3341,0.3341,0.3341,0,0.2553,0.2566,0.2626,0.2635,0.2677,0.2734,0.2804,0.2865,0.2976,0.3041,0.3128,0.3189,0.326,0.3322,0.3312,0.3337,0.3378,0.3291,0.3279,0.3063,0.304,0.3259,0.3248,0.3343,0.3343,0.3342,0.3342,0,0.2493,0.2533,0.2558,0.2629,0.2653,0.2685,0.2804,0.2851,0.2969,0.306,0.3095,0.3236,0.3312,0.3371,0.3415,0.3392,0.3399,0.3385,0.3128,0.3086,0.3275,0.3267,0.335,0.3349,0.3349,0.3348,0.3348,0,0.2462,0.2469,0.2541,0.256,0.2594,0.2658,0.27,0.2828,0.2888,0.3068,0.3099,0.3237,0.3305,0.34,0.3372,0.3374,0.3404,0.3135,0.3041,0.3302,0.3283,0.3275,0.3267,0.2783,0.2778,0.2774,0.2771,0,0.2409,0.244,0.2466,0.2506,0.2545,0.2592,0.2667,0.2722,0.2858,0.2945,0.3058,0.3141,0.3261,0.3178,0.3212,0.3163,0.3119,0.3054,0.34,0.283,0.2775,0.2754,0.2763,0.2734,0.2738,0.2741,0.2743,0.2744,0.2372,0.2377,0.2413,0.2439,0.2477,0.2499,0.2504,0.2589,0.2665,0.2753,0.2904,0.2934,0.2993,0.2936,0.2844,0.2769,0.2976,0.2819,0.2827,0.2841,0.2779,0.2727,0.2664,0.2667,0.267,0.2673,0.2675,0,0.2305,0.2317,0.2339,0.2354,0.2339,0.24,0.2446,0.242,0.2438,0.2552,0.2626,0.2461,0.2447,0.2488,0.2341,0.2353,0.2288,0.2234,0.2119,0.2161,0.2196,0.2095,0.1802,0.1798,0.1795,0.1792,0,0,0.2274,0.2252,0.2253,0.2198,0.2207,0.2153,0.2149,0.2131,0.2172,0.2152,0.2153,0.2348,0.2451,0.2092,0.2055,0.1901,0.2002,0.1824,0.2537,0.2446,0.2476,0.2563,0.246,0,0,0,0,0]},{"header":{"parameterUnit":"m.s-1","parameterCategory":2,"la1":30.2991,"la2":30.254,"lo1":-89.0895,"lo2":-89.0444,"dy":0.0017,"dx":0.0017,"nx":28,"ny":28,"refTime":"2024-03-22T21:00:00:Z","depth":"2","parameterNumber":3,"parameterNumberName":"V-component_of_CURRENTS"},"data":[0,0,0,0,0,0,0,0,0,0,0,0,0,0,0,0,0,0,0,0,0,0,0,0,0,0,0,0,0,0,0,0,0,0,0,0,0,0,0,0,0,0,0,0,0,0,0,0,0,0,0,0,0,0,0,0,0,0,0.0172,0.0172,0,0.0148,0.0147,0.0147,0.0125,0.0125,0.0124,0.0124,0.0092,0.0091,0.0091,0,0,0,0,0,0,0,0,0,0,0,0,0,0.0159,0.016,0.0172,0.0172,0.0172,0.0148,0.0147,0.0147,0.0125,0.0124,0.0124,0.0124,0.0092,0.0092,0.0091,0,0,0,0,0,0,0,0,0,0,0,0,0,0.0152,0.016,0.0172,0.0159,0.0158,0.0148,0.0147,0.0147,0.0125,0.0124,0.0124,0.0124,0.0093,0.0092,0.0091,0.0089,0,0,0.0087,0.0087,0,0,0,0,0,0,0,0,0.0152,0.0152,0.0161,0.016,0.0158,0.014,0.0131,0.0127,0.0125,0.0136,0.0124,0.0124,0.0108,0.0106,0.01,0.0087,0.0086,0.0087,0.0087,0.0086,0.0086,0,0,0,0,0,0,0,0.0153,0.0153,0.0161,0.0161,0.0159,0.014,0.0139,0.013,0.0123,0.0135,0.0134,0.0133,0.0107,0.0101,0.0099,0.0085,0.0087,0.0086,0.0086,0.0085,0.0064,0.0064,0,0,0,0,0,0,0.0161,0.0154,0.0162,0.0161,0.0156,0.0141,0.0139,0.0145,0.0123,0.012,0.0133,0.0132,0.0103,0.0101,0.0098,0.0104,0.0086,0.0085,0.0085,0.0064,0.0064,0.0064,0,0,0,0,0,0,0.0161,0.0162,0.0163,0.0157,0.0156,0.0142,0.0148,0.0145,0.0139,0.0122,0.0118,0.013,0.0103,0.01,0.0093,0.0102,0.0085,0.0084,0.0064,0.0064,0.0064,0.0109,0,0,0,0,0,0,0.0161,0.0162,0.0163,0.0158,0.0157,0.0162,0.0148,0.0145,0.0139,0.0137,0.0118,0.0115,0.0103,0.0095,0.0092,0.01,0.0083,0.0064,0.0064,0.0064,0.0108,0.0111,0.0114,0,0,0,0,0,0.016,0.0171,0.0164,0.0165,0.0161,0.0162,0.016,0.0148,0.0139,0.014,0.0127,0.0115,0.0093,0.0094,0.0091,0.0099,0.0064,0.0064,0.0064,0.0107,0.011,0.0114,0,0,0,0,0,0,0.0167,0.017,0.0162,0.0172,0.0167,0.0159,0.0159,0.015,0.0139,0.0138,0.0119,0.0115,0.0109,0.0097,0.0098,0.0092,0.0076,0.0075,0.0109,0.0113,0.0116,0.0136,0.0082,0,0,0,0,0,0.0169,0.0177,0.0173,0.018,0.018,0.0168,0.0165,0.0159,0.0152,0.0147,0.0131,0.0117,0.0107,0.0105,0.0091,0.0092,0.007,0.0093,0.0096,0.0099,0.0112,0.0084,0.0085,0.0065,0.0065,0.0065,0,0,0.0176,0.0176,0.0181,0.0182,0.0177,0.0187,0.0166,0.0169,0.0179,0.0145,0.0148,0.0125,0.0108,0.0107,0.0104,0.0099,0.009,0.0099,0.0102,0.0114,0.0084,0.0086,0.0088,0.0065,0.0065,0.0065,0,0,0.0198,0.0192,0.0208,0.0206,0.0203,0.0199,0.0202,0.0193,0.019,0.0188,0.0167,0.0152,0.0135,0.0128,0.0123,0.0135,0.0103,0.0124,0.0164,0.0135,0.0137,0.0138,0.0103,0.0101,0.0131,0.0132,0.0132,0,0.0203,0.0226,0.0211,0.0225,0.0232,0.0209,0.0231,0.0225,0.0214,0.0221,0.0195,0.0169,0.0149,0.0159,0.016,0.0144,0.0118,0.0153,0.014,0.0141,0.0142,0.0105,0.0102,0.0134,0.0133,0.0133,0.0133,0,0.0241,0.0254,0.0265,0.0276,0.0279,0.0294,0.0289,0.0291,0.0277,0.0269,0.0263,0.0226,0.0216,0.02,0.0185,0.0184,0.016,0.0143,0.0135,0.0147,0.0107,0.0103,0.0137,0.0136,0.0135,0.0135,0,0,0.0267,0.0289,0.0291,0.0313,0.0311,0.0326,0.0341,0.0358,0.0383,0.0342,0.0363,0.0325,0.0297,0.0288,0.0257,0.0231,0.0203,0.0194,0.0192,0.0166,0.0132,0.0113,0.0106,0.0181,0.0181,0.0181,0.0099,0,0.0302,0.0349,0.0345,0.0391,0.042,0.0408,0.0433,0.0439,0.0431,0.044,0.0394,0.0391,0.0334,0.0328,0.0292,0.0233,0.0196,0.0226,0.0119,0.0116,0.0103,0.0103,0.0125,0.0055,0.0095,0.0094,0.0094,0,0.0342,0.0372,0.0428,0.0472,0.0484,0.0503,0.0547,0.0567,0.0567,0.0561,0.0536,0.0491,0.0453,0.0395,0.0292,0.0312,0.0228,0.0168,0.0163,0.0131,0.0091,0.005,0.0046,0.0087,0.0088,0.0088,0.0089,0,0.0383,0.043,0.0483,0.0495,0.0537,0.0565,0.0587,0.0605,0.0647,0.0636,0.0652,0.0581,0.056,0.0445,0.031,0.0301,0.0185,0.0157,0.0056,0.0053,0.0046,0.0043,0.0076,0.0076,0.0076,0.0076,0.0077,0,0.0429,0.0469,0.051,0.0539,0.062,0.0621,0.07,0.0713,0.0744,0.0799,0.0719,0.0738,0.0571,0.0481,0.034,0.019,0.0203,0.0066,0.0035,0.0061,0.006,0.0071,0.0072,0.0073,0.0074,0.0075,0.0075,0,0.0467,0.0489,0.0559,0.0616,0.0644,0.0701,0.0785,0.0842,0.0856,0.0922,0.0921,0.0861,0.0745,0.0563,0.038,0.0246,0.0092,0.003,0.0066,0.0041,-0.0032,-0.0028,-0.0085,-0.0086,-0.0087,-0.0088,-0.0089,0,0.0492,0.0533,0.0622,0.0675,0.0705,0.079,0.0858,0.0901,0.0968,0.1003,0.1046,0.0952,0.091,0.0633,0.0369,0.0115,0.0083,-0.0033,-0.0045,-0.0021,-0.0047,-0.0041,-0.0036,-0.0046,-0.0047,-0.0047,-0.0047,0,0.0548,0.0577,0.0639,0.0751,0.083,0.0932,0.1025,0.1099,0.1151,0.1207,0.1254,0.122,0.0951,0.0703,0.0346,0.0176,0.0008,-0.0047,-0.0029,-0.0003,0.001,-0.0013,-0.0009,-0.005,-0.005,-0.0049,-0.0049,-0.0049,0.0594,0.0648,0.073,0.0838,0.0935,0.1059,0.1154,0.1253,0.1375,0.1456,0.1409,0.1363,0.1063,0.0622,0.0305,-0.0024,0.0001,-0.0109,-0.0106,-0.0104,-0.0079,-0.0067,-0.0138,-0.0138,-0.0138,-0.0138,-0.0138,0,0.0654,0.0714,0.0811,0.0941,0.1052,0.1098,0.1261,0.1355,0.1503,0.1558,0.159,0.1309,0.1018,0.0667,0.0178,-0.0106,-0.0124,-0.0194,-0.0155,-0.015,-0.0146,-0.0122,-0.0194,-0.0195,-0.0196,-0.0197,0,0,0.0687,0.0784,0.0832,0.1018,0.1112,0.1276,0.1376,0.1512,0.1597,0.1663,0.1633,0.1553,0.1129,0.0765,0.0369,0.0084,0.0037,0.0032,0.0111,0.021,0.0218,-0.0062,-0.0015,0,0,0,0,0]}],[{"header":{"parameterUnit":"m.s-1","parameterCategory":2,"la1":30.2991,"la2":30.254,"lo1":-89.0895,"lo2":-89.0444,"dy":0.0017,"dx":0.0017,"nx":28,"ny":28,"refTime":"2024-03-22T21:00:00:Z","depth":"4","parameterNumber":2,"parameterNumberName":"U-component_of_CURRENTS"},"data":[0,0,0,0,0,0,0,0,0,0,0,0,0,0,0,0,0,0,0,0,0,0,0,0,0,0,0,0,0,0,0,0,0,0,0,0,0,0,0,0,0,0,0,0,0,0,0,0,0,0,0,0,0,0,0,0,0,0,0.1616,0.1618,0,0.1738,0.1739,0.1741,0.1837,0.1838,0.1839,0.184,0.1906,0.1907,0.1908,0,0,0,0,0,0,0,0,0,0,0,0,0,0.1489,0.149,0.1616,0.1618,0.1619,0.1738,0.1739,0.1741,0.1837,0.1838,0.1839,0.184,0.1906,0.1907,0.1908,0,0,0,0,0,0,0,0,0,0,0,0,0,0.157,0.1491,0.1616,0.1682,0.1689,0.1737,0.1739,0.1741,0.1837,0.1838,0.184,0.1841,0.1905,0.1907,0.1908,0.1886,0,0,0.1912,0.1912,0,0,0,0,0,0,0,0,0.1565,0.1575,0.167,0.1677,0.1685,0.1774,0.1719,0.1787,0.1836,0.178,0.184,0.1842,0.1856,0.1861,0.1881,0.1889,0.1892,0.1912,0.1913,0.1913,0.1913,0,0,0,0,0,0,0,0.1559,0.157,0.1664,0.1672,0.1681,0.1712,0.1725,0.1732,0.1807,0.1785,0.1792,0.1806,0.186,0.188,0.1883,0.1893,0.1912,0.1913,0.1914,0.1914,0.1998,0.1999,0,0,0,0,0,0,0.1542,0.1565,0.166,0.1668,0.1628,0.1713,0.1728,0.1744,0.1808,0.182,0.1805,0.181,0.1877,0.1882,0.1886,0.1961,0.1913,0.1914,0.1915,0.1996,0.1998,0.2,0,0,0,0,0,0,0.1539,0.155,0.1655,0.1619,0.1635,0.1714,0.1731,0.1745,0.181,0.1824,0.1835,0.186,0.1878,0.1884,0.1927,0.196,0.1915,0.1916,0.1995,0.1997,0.1999,0.2048,0,0,0,0,0,0,0.1535,0.1548,0.1575,0.1618,0.1636,0.1712,0.173,0.1747,0.1813,0.1823,0.1873,0.1879,0.188,0.1926,0.1929,0.1961,0.1917,0.1993,0.1996,0.1998,0.2044,0.2051,0.2057,0,0,0,0,0,0.153,0.1554,0.1575,0.1588,0.1663,0.1713,0.1726,0.1786,0.1815,0.1849,0.1882,0.188,0.1945,0.1928,0.1931,0.1965,0.1991,0.1995,0.1998,0.2041,0.205,0.2057,0,0,0,0,0,0,0.1524,0.1568,0.1592,0.1633,0.1682,0.173,0.1774,0.1808,0.1863,0.1883,0.1894,0.1901,0.1954,0.1951,0.1931,0.1998,0.197,0.1974,0.2001,0.201,0.2016,0.2031,0.1918,0,0,0,0,0,0.1529,0.1558,0.1606,0.1645,0.1671,0.1729,0.1765,0.1806,0.1849,0.1879,0.1907,0.1937,0.1962,0.1981,0.2001,0.203,0.2034,0.2056,0.2063,0.2068,0.2084,0.2115,0.2126,0.2011,0.201,0.201,0,0,0.1538,0.1568,0.1587,0.1646,0.1692,0.1731,0.1757,0.1824,0.1865,0.1872,0.1941,0.1964,0.1977,0.2019,0.2042,0.2024,0.2102,0.2073,0.2077,0.209,0.212,0.2131,0.2141,0.2013,0.2012,0.2012,0,0,0.1556,0.1599,0.1627,0.1666,0.1736,0.1766,0.1792,0.1858,0.1904,0.1957,0.1978,0.2025,0.2056,0.208,0.2091,0.2144,0.2138,0.2153,0.2196,0.2226,0.2236,0.2244,0.2255,0.2265,0.2152,0.2152,0.2153,0,0.1571,0.1609,0.1646,0.1683,0.1723,0.1782,0.1826,0.1871,0.1944,0.1982,0.1988,0.2073,0.2085,0.2141,0.2165,0.216,0.2171,0.2162,0.2234,0.2243,0.2251,0.226,0.227,0.2155,0.2155,0.2155,0.2154,0,0.1598,0.1643,0.1668,0.1725,0.1771,0.1824,0.1879,0.1936,0.1989,0.2032,0.2115,0.2139,0.2192,0.2201,0.22,0.227,0.2257,0.224,0.2213,0.2266,0.2272,0.2281,0.2159,0.2158,0.2157,0.2157,0,0,0.1593,0.1671,0.1684,0.1718,0.1803,0.1837,0.191,0.1989,0.2048,0.2114,0.2184,0.224,0.2275,0.2291,0.2303,0.233,0.239,0.2317,0.2317,0.2325,0.2453,0.2306,0.2302,0.239,0.2392,0.2393,0.2431,0,0.1613,0.1671,0.1714,0.1782,0.1818,0.1891,0.1948,0.2028,0.2098,0.2174,0.223,0.23,0.2301,0.234,0.2371,0.2395,0.2419,0.2381,0.2404,0.2404,0.2265,0.2309,0.24,0.2438,0.244,0.2441,0.2442,0,0.1622,0.1662,0.1728,0.1809,0.1835,0.1889,0.2,0.2063,0.2177,0.2233,0.2321,0.2366,0.2447,0.2424,0.2499,0.2479,0.2479,0.248,0.2481,0.2336,0.2274,0.2376,0.2458,0.2457,0.2456,0.2455,0.2454,0,0.158,0.1669,0.1722,0.1752,0.1852,0.1911,0.1979,0.2094,0.2167,0.2289,0.2354,0.2442,0.2507,0.2531,0.2558,0.254,0.2614,0.2578,0.2443,0.2432,0.2531,0.2522,0.262,0.262,0.262,0.262,0.2619,0,0.1562,0.1608,0.1714,0.1741,0.182,0.19,0.2006,0.2084,0.2212,0.2289,0.2394,0.2454,0.2542,0.2594,0.2588,0.2548,0.2642,0.2461,0.2437,0.2549,0.2541,0.2537,0.2527,0.2621,0.2621,0.262,0.262,0,0.1502,0.1572,0.1639,0.1757,0.1803,0.1865,0.2024,0.2085,0.2222,0.2324,0.2372,0.2503,0.2558,0.2614,0.2655,0.2577,0.2553,0.2511,0.2637,0.2617,0.234,0.2333,0.2353,0.2348,0.2344,0.2341,0.2338,0,0.147,0.1501,0.164,0.1686,0.1752,0.1862,0.1928,0.2078,0.2142,0.2324,0.2349,0.2473,0.2532,0.2478,0.2541,0.2517,0.2484,0.2453,0.2386,0.2341,0.2316,0.2315,0.2313,0.2332,0.2331,0.233,0.2329,0,0.1414,0.1484,0.1541,0.1637,0.1718,0.1795,0.1904,0.1943,0.2095,0.2238,0.2274,0.2301,0.2357,0.2376,0.2387,0.2361,0.2461,0.241,0.2417,0.2354,0.2316,0.2294,0.2297,0.2315,0.2317,0.2318,0.2319,0,0.1383,0.1409,0.1496,0.1565,0.1657,0.1689,0.1766,0.1829,0.1912,0.2099,0.2102,0.2215,0.2333,0.2296,0.2299,0.2274,0.2227,0.2137,0.2157,0.2174,0.2096,0.2021,0.1915,0,0,0,0,0,0.1337,0.1351,0.1411,0.1471,0.1551,0.1601,0.1722,0.1796,0.1942,0.1914,0.2006,0.204,0.2055,0.2118,0.2051,0.2214,0.2235,0.2126,0.2143,0.2237,0.2253,0.2177,0,0,0,0,0,0,0.1306,0.1361,0.1374,0.137,0.1388,0.1457,0.1525,0.1625,0.1624,0.1779,0.18,0.1912,0.196,0.2066,0.201,0.2026,0.1993,0.2203,0.2197,0.2228,0.2243,0.2256,0.2183,0,0,0,0,0]},{"header":{"parameterUnit":"m.s-1","parameterCategory":2,"la1":30.2991,"la2":30.254,"lo1":-89.0895,"lo2":-89.0444,"dy":0.0017,"dx":0.0017,"nx":28,"ny":28,"refTime":"2024-03-22T21:00:00:Z","depth":"4","parameterNumber":3,"parameterNumberName":"V-component_of_CURRENTS"},"data":[0,0,0,0,0,0,0,0,0,0,0,0,0,0,0,0,0,0,0,0,0,0,0,0,0,0,0,0,0,0,0,0,0,0,0,0,0,0,0,0,0,0,0,0,0,0,0,0,0,0,0,0,0,0,0,0,0,0,0.0262,0.0262,0,0.023,0.023,0.0229,0.021,0.021,0.021,0.021,0.0192,0.0191,0.0191,0,0,0,0,0,0,0,0,0,0,0,0,0,0.0262,0.0263,0.0262,0.0262,0.0261,0.023,0.023,0.0229,0.021,0.021,0.021,0.021,0.0192,0.0191,0.0191,0,0,0,0,0,0,0,0,0,0,0,0,0,0.0249,0.0263,0.0262,0.0249,0.0247,0.023,0.023,0.0229,0.021,0.021,0.021,0.021,0.0192,0.0191,0.0191,0.0186,0,0,0.0188,0.0188,0,0,0,0,0,0,0,0,0.025,0.0249,0.0251,0.025,0.0248,0.0225,0.0223,0.0216,0.021,0.0223,0.021,0.021,0.0205,0.0203,0.0195,0.0185,0.0184,0.0188,0.0188,0.0187,0.0187,0,0,0,0,0,0,0,0.0251,0.025,0.0248,0.0251,0.0249,0.0229,0.0228,0.0221,0.0214,0.0222,0.0221,0.0219,0.0204,0.0196,0.0195,0.0184,0.0188,0.0188,0.0187,0.0187,0.0172,0.0173,0,0,0,0,0,0,0.0259,0.0251,0.0249,0.0247,0.025,0.023,0.0228,0.0232,0.0214,0.0211,0.0219,0.0218,0.0197,0.0196,0.0194,0.02,0.0187,0.0187,0.0186,0.0172,0.0172,0.0173,0,0,0,0,0,0,0.0259,0.0259,0.0251,0.0249,0.0246,0.023,0.0234,0.0231,0.0225,0.0211,0.0209,0.0217,0.0197,0.0195,0.0193,0.0199,0.0186,0.0186,0.0172,0.0172,0.0172,0.0205,0,0,0,0,0,0,0.0259,0.026,0.0264,0.025,0.0247,0.0244,0.0234,0.023,0.0224,0.0223,0.0209,0.0207,0.0197,0.0195,0.0193,0.0198,0.0185,0.0172,0.0172,0.0172,0.0204,0.0206,0.0208,0,0,0,0,0,0.0259,0.0267,0.0264,0.0264,0.0254,0.0244,0.0241,0.0228,0.0225,0.0223,0.0216,0.0207,0.0194,0.0194,0.0192,0.0197,0.0172,0.0172,0.0172,0.0203,0.0206,0.0208,0,0,0,0,0,0,0.0268,0.0266,0.0262,0.0269,0.0258,0.0241,0.024,0.0231,0.0223,0.0225,0.0211,0.0208,0.0207,0.0197,0.0198,0.0192,0.0181,0.018,0.0204,0.0207,0.0209,0.0223,0.0185,0,0,0,0,0,0.0273,0.0279,0.0269,0.0274,0.0271,0.0256,0.025,0.0243,0.0234,0.023,0.022,0.0211,0.0205,0.0203,0.0193,0.0193,0.0171,0.0193,0.0195,0.0197,0.0206,0.0173,0.0174,0.0173,0.0173,0.0173,0,0,0.0278,0.0276,0.028,0.0276,0.0268,0.0269,0.0253,0.0249,0.0253,0.0231,0.0234,0.0219,0.0206,0.0204,0.0203,0.0198,0.0184,0.0198,0.02,0.0207,0.0174,0.0174,0.0174,0.0173,0.0173,0.0173,0,0,0.0288,0.029,0.0297,0.0294,0.0287,0.0279,0.0281,0.0267,0.0265,0.0263,0.0249,0.0239,0.0228,0.022,0.0215,0.0223,0.0195,0.0218,0.0243,0.0211,0.0211,0.021,0.0174,0.017,0.0221,0.0221,0.0221,0,0.029,0.0306,0.0296,0.0302,0.0306,0.0288,0.0298,0.0291,0.0279,0.0284,0.027,0.0251,0.0237,0.0238,0.0241,0.0229,0.0204,0.0236,0.0214,0.0213,0.0212,0.0175,0.017,0.0222,0.0222,0.0222,0.0222,0,0.0307,0.032,0.0325,0.0331,0.0331,0.0338,0.0331,0.0334,0.0327,0.0318,0.0314,0.0288,0.0279,0.0268,0.0259,0.025,0.0231,0.0219,0.0209,0.0214,0.0174,0.0169,0.0225,0.0224,0.0224,0.0223,0,0,0.0313,0.0334,0.0336,0.0354,0.0352,0.0359,0.0369,0.0377,0.0394,0.0365,0.0376,0.0351,0.0332,0.0325,0.0303,0.0275,0.0241,0.0249,0.0247,0.0217,0.0165,0.0147,0.0139,0.0224,0.0223,0.0223,0.0136,0,0.033,0.036,0.0362,0.0394,0.0413,0.041,0.0427,0.043,0.0425,0.0428,0.0394,0.0392,0.0355,0.0354,0.0318,0.0266,0.023,0.0265,0.0162,0.0159,0.0145,0.0133,0.0221,0.0132,0.0131,0.013,0.0129,0,0.0347,0.037,0.0409,0.0448,0.0457,0.0472,0.0506,0.052,0.0516,0.0512,0.0491,0.0459,0.0423,0.0387,0.0289,0.0313,0.0245,0.0193,0.0188,0.016,0.0131,0.0127,0.0119,0.012,0.0121,0.0121,0.0122,0,0.0369,0.0405,0.0445,0.0457,0.0492,0.0516,0.0537,0.0548,0.0578,0.0567,0.0575,0.0514,0.0494,0.0398,0.0289,0.029,0.0171,0.0156,0.007,0.0067,0.0096,0.0097,0.008,0.008,0.008,0.008,0.008,0,0.0391,0.0424,0.0465,0.0488,0.0551,0.0557,0.0617,0.0628,0.0649,0.0683,0.0624,0.0624,0.0496,0.0412,0.0302,0.0169,0.0175,0.0073,0.0045,0.0109,0.0113,0.0091,0.0093,0.0077,0.0078,0.0078,0.0079,0,0.0409,0.0433,0.0487,0.0539,0.0565,0.0612,0.0683,0.0722,0.0733,0.0772,0.0772,0.0708,0.0596,0.0452,0.0295,0.0196,0.0065,0.0013,0.009,0.0068,-0.0023,-0.0017,-0.0089,-0.009,-0.0091,-0.0092,-0.0093,0,0.042,0.0451,0.0532,0.0574,0.0603,0.0675,0.0729,0.0767,0.0809,0.0822,0.084,0.075,0.0683,0.0449,0.0291,0.0066,0.0034,-0.0042,-0.0032,-0.002,-0.004,-0.0033,-0.0026,-0.0095,-0.0095,-0.0096,-0.0096,0,0.0444,0.0475,0.0523,0.0616,0.0682,0.0763,0.0836,0.0874,0.0914,0.0921,0.0895,0.0774,0.0642,0.0454,0.0274,0.0115,0.0004,-0.0054,-0.0053,-0.0044,-0.0028,-0.0045,-0.0037,-0.01,-0.0099,-0.0099,-0.0099,0,0.0465,0.0502,0.0569,0.0652,0.074,0.0823,0.0861,0.0907,0.0952,0.0956,0.0944,0.0801,0.0721,0.0479,0.0317,0.0152,0.011,0.0055,0.005,0.0052,0.0115,0.0158,0.0118,0,0,0,0,0,0.0481,0.0524,0.0598,0.069,0.0778,0.0836,0.0923,0.0952,0.0988,0.0977,0.0964,0.084,0.0601,0.0505,0.0337,0.0285,0.0074,0.0081,0.0005,-0.0121,-0.0117,-0.0069,0,0,0,0,0,0,0.0489,0.0557,0.0596,0.071,0.0778,0.0882,0.0943,0.0967,0.0964,0.0967,0.0848,0.0789,0.0562,0.0696,0.0332,0.0282,0.0209,-0.0027,-0.0031,-0.0124,-0.012,-0.0116,-0.0065,0,0,0,0,0]}]]